#timestamp,LO_Frequency,Hit 
1504515615.2,286046998.1,N
1504515635.0,286046999.1,N
1504515635.9,286046999.1,N
1504515655.8,286046999.6,N
1504515675.6,286046994.9,P
1504515695.4,286046998.5,N
1504515715.3,286047000.0,N
1504515735.1,286047001.1,N
1504515755.9,286047000.9,N
1504515775.7,286046999.4,N
1504515795.5,286047001.0,N
1504515815.4,286047000.9,N
1504515835.2,286047000.1,N
1504515855.0,286047004.0,N
1504515855.9,286047004.0,N
1504515875.8,286047000.0,N
1504515895.6,286047000.2,N
1504515915.4,286046998.1,N
1504515935.3,286046997.0,N
1504515955.1,286047000.7,N
1504515975.8,286046998.2,N
1504515995.7,286046999.2,N
1504516015.5,286046997.5,N
1504516035.3,286046999.2,N
1504516055.2,286046999.2,N
1504516075.0,286046998.6,N
1504516075.9,286046998.6,N
1504516095.7,286047000.5,N
1504516115.6,286046998.5,N
1504516135.4,286046998.3,N
1504516155.3,286046999.6,N
1504516175.1,286046999.4,N
1504516176.0,286046999.4,N
1504516195.8,286046997.2,N
1504516215.7,286046996.2,N
1504516235.5,286046993.7,P
1504516255.3,286046995.6,N
1504516275.2,286046995.0,N
1504516295.9,286046996.4,N
1504516315.7,286046996.3,N
1504516335.6,286046997.6,N
1504516355.4,286046995.4,N
1504516375.2,286046995.1,N
1504516395.1,286046995.8,N
1504516396.0,286046995.8,N
1504516415.8,286046995.1,P
1504516435.6,286046998.6,P
1504516455.5,286047001.2,N
1504516475.3,286046998.2,N
1504516495.2,286047000.6,N
1504516515.9,286047001.0,N
1504516535.7,286047001.1,N
1504516555.6,286046998.1,N
1504516575.4,286047000.3,N
1504516595.2,286047001.2,N
1504516615.1,286047002.8,N
1504516616.0,286047002.8,N
1504516635.8,286047000.5,N
1504516655.6,286047000.6,N
1504516675.5,286047002.0,N
1504516695.3,286047002.0,N
1504516715.1,286046999.9,N
1504516735.9,286046996.9,N
1504516755.7,286046997.1,N
1504516775.5,286046997.2,N
1504516795.4,286046998.0,N
1504516815.2,286046997.0,N
1504516835.0,286046999.3,N
1504516835.9,286046999.3,N
1504516855.8,286046999.2,N
1504516875.6,286046999.3,N
1504516895.5,286046999.6,N
1504516915.3,286046997.8,N
1504516935.1,286046994.9,N
1504516955.9,286046995.3,N
1504516975.7,286046997.9,N
1504516995.5,286046997.6,N
1504517015.4,286046997.9,N
1504517035.2,286046997.1,N
1504517055.0,286046996.7,N
1504517055.9,286046996.7,N
1504517075.8,286046998.8,N
1504517095.6,286047000.7,N
1504517115.4,286046998.2,N
1504517135.3,286046998.7,N
1504517155.1,286046998.2,N
1504517175.8,286047000.0,N
1504517195.7,286047001.8,N
1504517215.5,286047004.5,N
1504517235.3,286047003.5,N
1504517255.2,286047001.8,N
1504517275.0,286046998.6,N
1504517275.9,286046998.6,N
1504517295.8,286047002.4,N
1504517315.6,286047003.0,N
1504517335.4,286047005.3,N
1504517355.3,286047003.1,N
1504517375.1,286047002.4,N
1504517376.0,286047002.4,N
1504517395.8,286047000.9,N
1504517415.7,286046996.6,N
1504517435.5,286046996.8,N
1504517455.3,286046997.9,N
1504517475.2,286046995.0,N
1504517495.0,286046997.6,N
1504517495.9,286046997.6,N
1504517515.7,286047000.0,N
1504517535.6,286047000.6,N
1504517555.4,286046997.7,N
1504517575.2,286046995.2,N
1504517595.1,286046996.4,N
1504517596.0,286046996.4,N
1504517615.8,286046995.4,N
1504517635.7,286046996.7,N
1504517655.5,286046997.0,N
1504517675.3,286047001.1,N
1504517695.2,286046997.1,N
1504517715.9,286046997.8,N
1504517735.7,286046996.7,N
1504517755.6,286046997.7,N
1504517775.4,286046998.9,N
1504517795.2,286047000.5,N
1504517815.1,286047000.4,N
1504517816.0,286047000.4,N
1504517835.8,286047000.9,N
1504517855.6,286046996.9,N
1504517875.5,286046997.6,N
1504517895.3,286046996.2,N
1504517915.1,286046993.3,P
1504517935.9,286046999.0,N
1504517955.7,286046998.1,N
1504517975.5,286046998.5,N
1504517995.4,286046998.2,N
1504518015.2,286047000.6,N
1504518035.1,286047000.7,N
1504518036.0,286047000.7,N
1504518055.8,286047002.0,N
1504518075.6,286047001.1,N
1504518095.5,286047001.5,N
1504518115.3,286047002.0,N
1504518135.1,286047002.0,N
1504518155.9,286047002.1,N
1504518175.7,286047002.5,N
1504518195.5,286047001.6,N
1504518215.4,286047000.3,N
1504518235.2,286047000.6,N
1504518255.0,286046998.3,N
1504518255.9,286046998.3,N
1504518275.8,286046999.5,N
1504518295.6,286046998.9,N
1504518315.4,286046998.3,N
1504518335.3,286046999.0,N
1504518355.1,286046999.1,N
1504518375.8,286046996.6,N
1504518395.7,286046997.2,N
1504518415.5,286046993.8,P
1504518435.4,286046996.4,N
1504518455.2,286046994.9,N
1504518475.0,286046995.4,N
1504518475.9,286046995.4,N
1504518495.8,286046997.8,N
1504518515.6,286046997.6,N
1504518535.4,286046996.0,N
1504518555.3,286046996.3,N
1504518575.1,286046993.3,P
1504518595.8,286046997.4,N
1504518615.7,286046996.6,N
1504518635.5,286046996.5,N
1504518655.3,286047000.1,N
1504518675.2,286047002.8,N
1504518695.0,286047002.3,N
1504518695.9,286047002.3,N
1504518715.7,286047000.1,N
1504518735.6,286047001.5,N
1504518755.4,286047001.6,N
1504518775.2,286047004.3,N
1504518795.1,286047003.5,N
1504518796.0,286047003.5,N
1504518815.8,286047006.0,N
1504518835.7,286047003.0,N
1504518855.5,286047002.2,N
1504518875.3,286047000.4,N
1504518895.2,286047000.9,N
1504518915.9,286047000.0,N
1504518935.7,286047002.8,N
1504518955.6,286047000.5,N
1504518975.4,286046998.3,N
1504518995.2,286046999.1,N
1504519015.1,286046996.9,N
1504519016.0,286046996.9,N
1504519035.8,286047000.9,N
1504519055.6,286047000.9,N
1504519075.5,286047000.2,N
1504519095.3,286047001.5,N
1504519115.1,286047002.6,N
1504519135.9,286046999.9,N
1504519155.7,286047002.8,N
1504519175.5,286047001.0,N
1504519195.4,286047001.2,N
